Regional Weather Roundup
Issued by NWS

Home | Current Version | Previous Version | Graphics & Text | Print | Product List | Glossary On
Versions: 1 2 3 4 5 6 7 8 9 10 11 12 13 14 15 16 17 18 19 20 21 22 23 24 25 26 27 28 29 30 31 32 33 34 35 36 37 38 39 40 41 42 43 44 45 46 47 48 49 50
000
ASUS45 KBOU 080610
RWRCO

WEATHER ROUNDUP FOR COLORADO
NATIONAL WEATHER SERVICE DENVER/BOULDER CO
1200 AM MDT WED JUL 08 2015

NOTE: "FAIR" INDICATES FEW OR NO CLOUDS BELOW 12000 FEET WITH NO
SIGNIFICANT WEATHER AND/OR OBSTRUCTIONS TO VISIBILITY.

COZ001>005-013-030-031-080700-
...NORTHWEST COLORADO...

CITY           SKY/WX    TMP DP  RH WIND       PRES   REMARKS
CRAIG          CLOUDY    59  52  77 NE5       30.13S
HAYDEN         CLOUDY    57  48  72 SE7       30.14F
MEEKER         LGT RAIN  57  54  89 NE3       30.13F
MOUNT WERNER   NOT AVBL
STEAMBOAT SPGS CLOUDY    53  52  97 W3        30.16S
WALDEN         CLOUDY    52  50  93 CALM      30.21F
$$

COZ006>008-011-080700-
...WEST CENTRAL VALLEYS...

CITY           SKY/WX    TMP DP  RH WIND       PRES   REMARKS
GRAND JUNCTION LGT RAIN  59  58  96 SE8       30.06S
MONTROSE       CLOUDY    62  58  86 E5        30.11S
EAGLE          CLOUDY    57  54  88 E6        30.17S
RIFLE          LGT RAIN  60  55  83 SE3       30.10S
DELTA          CLOUDY    64  59  84 SW9       30.09R
NUCLA          LGT RAIN  59  55  88 CALM      30.17S
$$

COZ017>023-064>068-080700-
...SOUTHWEST COLORADO...

CITY           SKY/WX    TMP DP  RH WIND       PRES   REMARKS
DURANGO        CLOUDY    56  52  86 E6        30.19S
CORTEZ         MOCLDY    57  56  96 CALM      30.11F
PAGOSA SPRINGS CLOUDY    52  51  95 CALM      30.25F
TELLURIDE      RAIN      50  47  90 CALM      30.32R
WOLF CREEK PAS NOT AVBL
$$

COZ009-010-012-014-032>034-037-058>063-080700-
...CENTRAL COLORADO...

CITY           SKY/WX    TMP DP  RH WIND       PRES   REMARKS
ASPEN          CLOUDY    51  48  89 SW6       30.20F
BUENA VISTA    CLOUDY    52  50  92 CALM      30.24
COPPER MTN     LGT RAIN  45  37  76 S9G23     30.45F
BERTHOUD PASS  DRIZZLE   36  28  75 MISG      30.48F
COTTONWOOD PAS NOT AVBL
GUNNISON       MOCLDY    55  45  67 N8        30.23F
KREMMLING      LGT RAIN  54  50  87 CALM      30.21F
LEADVILLE      CLOUDY    46  46 100 S6        30.32  FOG
MONARCH PASS   CLOUDY    41  37  87 SW14      30.56S
SALIDA         CLOUDY    55  52  91 SE3       30.29F
SUNLIGHT       CLOUDY    46  45  93 CALM      30.40F
WILKERSON PASS FOG       43  41  93 SW5       30.43F VSB 1/4
$$

COZ069>075-080700-
...SAN LUIS VALLEY/SANGRE DE CRISTO MOUNTAINS...

CITY           SKY/WX    TMP DP  RH WIND       PRES   REMARKS
ALAMOSA        CLEAR     50  48  93 W3        30.22R
LA VETA PASS   PTCLDY    43  41  93 MISG      30.35F
SAGUACHE       MOCLDY    48  46  93 CALM      30.25F
$$

COZ035-036-038>040-080700-
...NORTHERN COLORADO FRONT RANGE...

CITY           SKY/WX    TMP DP  RH WIND       PRES   REMARKS
DENVER INTL AP MOCLDY    57  52  83 S7        30.09F HAZE
DMNS CITY PARK   N/A     61  53  76 SW6       30.08S
AURORA         MOCLDY    58  53  81 S12       30.10F
FRONT RANGE AP CLOUDY    59  52  77 S6        30.10F
ERIE MUNI ARPT CLOUDY    62  60  94 CALM      30.07F FOG
BOULDER MUN AP CLOUDY    61  59  94 CALM      30.08F
CENTENNIAL     MOCLDY    59  53  80 S10       30.11F HAZE
BROOMFIELD     MOCLDY    59  55  88 NW3       30.10F
FORT COLLINS   MOCLDY    59  55  88 CALM      30.09F
LONGMONT       CLOUDY    63  60  91 W3        30.09F FOG
$$

COZ041-046-047-076>085-087-088-080700-
...PIKES PEAK/PALMER DIVIDE AND SOUTHERN FOOTHILLS...

CITY           SKY/WX    TMP DP  RH WIND       PRES   REMARKS
COLO. SPRINGS  CLOUDY    58  53  84 E3        30.17F FOG
A. F. ACADEMY  CLOUDY    57  54  88 SE7       30.16F
ELLICOTT       CLOUDY   N/A N/A N/A S3        30.15F HAZE
FALCON         CLOUDY    55  52  89 CALM      30.20F FOG
FORT CARSON    CLOUDY    57  57 100 S2        30.14F FOG
LIMON          PTCLDY    54  44  69 SE6       30.14F
MONUMENT HILL  PTCLDY    54  50  87 MISG      30.18F
TRINIDAD       CLOUDY    58  55  90 VRB3      30.12F FOG
$$

COZ042>045-048>051-090-091-080700-
...NORTHEAST COLORADO...

CITY           SKY/WX    TMP DP  RH WIND       PRES   REMARKS
GREELEY ARPT   MOCLDY    63  55  77 S5        30.07F
AKRON          CLOUDY    63  45  51 SE16G24   30.11F
BURLINGTON     MOCLDY    63  44  50 SE14      30.12F
WRAY           CLOUDY    63  48  58 E5        30.10S
STERLING       CLOUDY    64  46  52 S12       30.06F
HOLYOKE        CLOUDY    63  48  59 SE10      30.10S
FORT MORGAN    CLOUDY    65  43  44 SE13      30.09F
$$

COZ086-089-092>099-080700-
...SOUTHEAST COLORADO...

CITY           SKY/WX    TMP DP  RH WIND       PRES   REMARKS
PUEBLO         CLOUDY    62  58  86 N3        30.08F FOG
LA JUNTA       MOCLDY    67  49  52 SE12      30.07F
LAMAR          CLOUDY    65  44  46 SE9       30.07F
SPRINGFIELD      N/A     59  50  72 S10       30.12F
$$



USA.gov is the U.S. government's official web portal to all federal, state and local government web resources and services.